+13,Max TemperatureF,Mean TemperatureF,Min TemperatureF,Max Dew PointF,MeanDew PointF,Min DewpointF,Max Humidity, Mean Humidity, Min Humidity, Max Sea Level PressureIn, Mean Sea Level PressureIn, Min Sea Level PressureIn, Max VisibilityMiles, Mean VisibilityMiles, Min VisibilityMiles, Max Wind SpeedMPH, Mean Wind SpeedMPH, Max Gust SpeedMPH,PrecipitationIn, CloudCover, Events, WindDirDegrees
2010-1-1,82,80,77,73,71,68,89,76,62,29.98,29.90,29.86,,,,12,8,,0.00,6,,111
2010-1-2,82,78,75,77,75,72,94,88,78,29.95,29.89,29.86,6,6,6,18,9,,0.00,6,Rain,95
2010-1-3,82,80,77,73,72,70,89,78,66,29.92,29.88,29.83,,,,17,8,,0.00,5,,106
2010-1-4,82,78,73,73,71,70,94,79,66,29.92,29.85,29.80,,,,17,6,,0.00,4,,118
2010-1-5,84,76,68,72,70,68,100,81,66,29.86,29.82,29.77,,,,16,4,,0.00,3,,112
2010-1-6,84,76,69,73,71,68,100,81,66,29.86,29.80,29.77,19,16,12,12,4,,0.00,4,,100
2010-1-7,86,82,77,75,74,72,89,79,62,29.86,29.80,29.77,19,19,19,18,9,,0.00,5,Rain,79
2010-1-8,86,82,77,77,74,70,94,81,58,29.86,29.81,29.77,,,,21,8,,0.00,4,,99
2010-1-9,84,81,78,75,74,73,89,81,70,29.86,29.81,29.77,,,,16,10,,0.00,4,,100
2010-1-10,84,78,71,73,72,68,94,78,66,29.83,29.76,29.71,,,,12,5,,0.00,3,,93
2010-1-11,87,81,75,75,72,70,94,77,58,29.80,29.74,29.68,,,,8,3,,0.00,4,,75
2010-1-12,87,81,75,75,74,72,100,80,58,29.83,29.77,29.71,,,,12,2,,0.00,5,Rain,62
2010-1-13,86,82,77,77,75,72,100,82,66,29.86,29.81,29.77,,,,14,3,,0.00,4,,155
2010-1-14,84,78,73,75,73,72,100,83,66,29.83,29.78,29.74,19,19,19,12,3,,0.00,4,Rain,148
2010-1-15,82,78,75,73,70,68,94,76,65,29.83,29.76,29.71,,,,12,2,,0.00,5,,155
2010-1-16,84,78,71,73,71,70,100,78,66,29.80,29.75,29.71,,,,6,2,,0.00,4,,120
2010-1-17,86,80,73,75,72,70,94,78,62,29.80,29.77,29.71,,,,17,3,,0.00,5,,108
2010-1-18,86,82,77,75,74,72,89,78,66,29.83,29.79,29.77,,,,16,5,,0.00,5,,94
2010-1-19,86,82,78,77,76,75,94,84,70,29.86,29.81,29.77,19,19,19,17,8,,0.00,4,Rain,105
2010-1-20,87,82,78,79,77,75,94,85,70,29.86,29.80,29.74,,,,14,6,,0.00,5,Rain,101
2010-1-21,86,82,77,77,76,73,100,87,70,29.83,29.77,29.71,19,12,6,6,3,,0.00,4,Rain,88
2010-1-22,87,81,75,77,75,70,100,83,58,29.83,29.77,29.71,1,1,1,12,1,,0.00,2,,96
2010-1-23,89,82,75,77,75,72,100,80,55,29.80,29.74,29.68,,,,12,3,,0.00,2,,109
2010-1-24,87,82,78,79,77,75,94,85,70,29.80,29.75,29.68,,,,10,2,,0.00,4,Rain,159
2010-1-25,87,80,73,79,76,73,100,84,66,29.80,29.73,29.68,,,,14,3,,0.00,3,,132
2010-1-26,87,82,77,79,77,73,94,85,70,29.74,29.66,29.59,6,5,2,12,4,,0.00,5,Rain,138
2010-1-27,87,82,78,79,78,73,100,87,70,29.68,29.62,29.56,,,,15,5,,0.00,5,Rain,169
2010-1-28,89,84,78,79,76,75,94,82,62,29.65,29.61,29.56,,,,14,3,,0.00,3,,191
2010-1-29,89,83,77,81,77,75,100,83,66,29.68,29.63,29.59,,,,12,3,,0.00,4,Rain,164
2010-1-30,89,82,75,77,76,73,100,83,62,29.68,29.65,29.62,,,,8,2,,0.00,3,,128
2010-1-31,87,80,73,79,75,73,100,83,66,29.68,29.63,29.56,,,,6,2,,0.00,4,,139